Location: *
(49.5667°N, 1.3667°W)
Time: 14:38:13
(UTC+00:00)

Daily predictions for brighter satellites

Satellite Brightness Start Highest point End
(mag) Time Altitude Azimuth Time Altitude Azimuth Time Altitude Azimuth
BREEZE-M DEB (TANK) 4.4 18:22:12 10° W 18:26:24 77° SSW 18:42:30 10° ESE
NOSS 3-3 (A) 4.0 18:32:14 10° SW 18:38:14 86° SE 18:45:02 10° NE
NOSS 3-3 (C) 4.0 18:32:21 10° SW 18:38:21 85° SE 18:45:08 10° NE
Cosmos 2227 Rocket 3.6 18:36:22 10° SE 18:39:43 16° E 18:43:05 10° ENE
ARGOS 4.4 18:36:42 10° ESE 18:40:49 23° ENE 18:44:57 10° N
Cosmos 2327 Rocket 4.5 18:35:19 10° N 18:41:34 68° ENE 18:47:41 10° SSE
Cosmos 407 Rocket 4.0 18:37:14 10° NNW 18:42:06 40° ENE 18:46:55 10° SE
Cosmos 2219 4.0 18:37:29 10° SSE 18:42:18 28° ESE 18:47:08 10° NE
Nadezhda 1 Rocket 4.1 18:36:30 10° SSE 18:42:20 52° E 18:48:13 10° NNE
HJ-1C 3.8 18:39:36 10° SE 18:42:48 42° ENE 18:46:02 10° N
GEOS 3 Rocket 3.6 18:38:58 10° SE 18:44:03 69° NE 18:49:10 10° NW
Cosmos 1939 Rocket 2.8 18:40:37 10° SSE 18:44:25 63° ENE 18:48:15 10° N
Meteor 2-9 Rocket 4.2 18:39:04 10° S 18:44:47 76° E 18:50:24 10° NNE
USA 186 3.2 18:42:05 10° ESE 18:44:49 22° ENE 18:47:33 10° NNE
COSMO-SKYMED 1 3.4 18:45:42 10° N 18:49:58 56° WNW 18:54:13 10° SSW
Cosmos 2297 Rocket 3.3 18:46:02 10° SSE 18:50:06 21° E 18:54:09 10° NE
Cosmos 1300 Rocket 3.8 18:45:58 10° SSW 18:50:17 74° W 18:54:37 10° N
Cosmos 1842 3.9 18:46:39 10° NNW 18:50:35 62° W 18:54:28 10° S
USA 234 3.7 18:47:09 10° ENE 18:53:36 62° NNW 19:00:03 10° W
Timation 2 Rocket 4.1 18:52:57 10° SSW 18:59:32 87° WNW 19:05:52 10° NNE
Meteor 1-4 Rocket 3.5 18:56:39 10° N 18:59:46 28° ENE 19:02:41 11° SE
Cosmos 2151 Rocket 4.3 18:57:26 10° SSW 19:01:47 59° WNW 19:06:09 10° N
Cosmos 405 Rocket 3.8 18:59:53 10° SE 19:02:45 22° E 19:05:39 10° NE
Cosmos 1140 Rocket 4.0 18:58:51 10° NNW 19:03:47 41° ENE 19:08:26 11° SE
Cosmos 1437 Rocket 4.3 19:01:18 10° NNE 19:04:00 18° ENE 19:05:41 14° E
Meteor 1-12 Rocket 4.3 19:01:57 10° S 19:07:41 90° W 19:13:23 10° NNE
CZ-2C R/B 4.3 19:04:56 13° ESE 19:08:38 25° ENE 19:13:05 10° N
ASTEX 1 3.6 19:04:34 10° NNE 19:09:20 49° E 19:14:04 10° SSE
ATLAS 2AS CENTAUR R/B 3.4 19:03:33 10° NW 19:11:06 60° WSW 19:18:03 10° SSE
In-Cosmos 22 4.3 19:06:26 10° N 19:11:40 52° ENE 19:16:59 10° SSE
Cosmos 2333 Rocket 3.1 19:08:13 10° NW 19:13:42 51° WSW 19:19:13 10° S
EO 1 Delta rocket 4.4 19:08:02 10° SSE 19:14:29 66° ENE 19:19:40 10° N
Cosmos 1455 Rocket 4.0 19:11:23 10° SE 19:15:05 27° E 19:18:49 10° NNE
SPOT 3 Rocket 3.7 19:11:38 10° SE 19:16:38 53° ENE 19:21:39 10° N
Cosmos 1441 Rocket 3.3 19:14:08 10° SSW 19:17:56 77° WNW 19:21:43 10° N
Cosmos 2237 Rocket 2.2 19:12:49 10° NNW 19:18:35 78° ENE 19:24:17 10° SSE
Cosmos 1674 3.9 19:18:35 10° NNE 19:21:38 23° ENE 19:22:42 21° E
ERBS 3.0 19:18:30 10° NW 19:21:46 42° NNE 19:23:37 21° E
SJ-11-01 4.3 19:18:36 10° SSE 19:23:20 74° ENE 19:28:06 10° N
ISS -2.5 19:23:20 10° SSW 19:26:01 23° SE 19:26:21 22° SE
FAST 4.5 19:23:10 10° S 19:26:04 54° E 19:28:39 10° NNE
Cosmos 2341 Rocket 3.9 19:20:33 10° N 19:26:49 73° ENE 19:33:01 10° SSE
Cosmos 1371 Rocket 4.1 19:21:55 10° S 19:27:03 52° ESE 19:32:16 10° NNE
Cosmos 1980 3.7 19:22:32 10° NNW 19:28:14 86° WSW 19:33:52 10° SSE
RESURS DK-1 4.1 19:26:17 10° N 19:29:21 20° NE 19:30:49 16° ENE
Cosmos 2181 Rocket 4.2 19:23:37 10° SSE 19:29:35 49° E 19:35:39 10° NNE
Cosmos 1805 4.4 19:30:39 22° E 19:30:40 22° E 19:33:45 10° NE
CZ-2C R/B 3.6 19:30:30 10° NNE 19:34:57 64° ESE 19:39:21 10° S
Cosmos 676 Rocket 4.1 19:32:27 10° NNW 19:37:42 62° ENE 19:41:12 21° SE
Okean 1 Rocket 3.8 19:33:58 10° SSW 19:38:14 56° WNW 19:42:33 10° N
FREGAT/IRIS 3.6 19:37:58 10° S 19:40:39 43° W 19:43:23 10° NNW
Cosmos 1707 3.7 19:38:21 10° NNW 19:42:10 50° W 19:45:57 10° S
Meteor 2-17 Rocket 4.3 19:37:22 10° N 19:43:30 79° E 19:49:33 10° SSE
Cosmos 2218 Rocket 4.1 19:37:14 10° N 19:43:34 61° ENE 19:49:01 14° SSE
Meteor 2-5 Rocket 3.8 19:38:05 10° N 19:43:53 64° ENE 19:48:44 15° SSE
Resurs 1-3 3.8 19:42:46 26° SE 19:44:57 49° ENE 19:49:12 10° N
Cosmos 2366 rocket 4.1 19:39:14 10° N 19:45:33 59° ENE 19:50:40 16° SSE
H-2A R/B 1.9 19:42:42 16° SSE 19:46:39 70° ENE 19:51:42 10° N
KORONAS-FOTON 4.2 19:45:13 10° N 19:48:48 39° ENE 19:49:22 37° E
SL-16 R/B 2.3 19:44:26 10° NNW 19:50:04 58° ENE 19:52:58 28° SE
Cosmos 1023 Rocket 4.4 19:45:50 10° NNW 19:51:02 87° WSW 19:54:45 19° SSE
Cosmos 2219 Rocket 4.2 19:47:19 10° NW 19:51:56 27° WSW 19:56:33 10° SSW
Cosmos 1602 Rocket 4.2 19:49:23 10° N 19:53:23 34° ENE 19:53:54 33° E
Cosmos 1190 Rocket 4.4 19:48:51 10° NNW 19:54:07 65° WSW 19:58:52 12° S
Resurs 01 Rocket 1.9 19:53:03 33° ESE 19:54:34 48° ENE 19:58:51 10° N
SL-8 Rocket 3.9 19:48:54 10° N 19:55:09 84° E 20:01:19 10° S
CZ-4C R/B 4.3 19:53:53 10° NW 19:58:51 24° N 20:04:29 10° NE
CZ-2C R/B 4.1 19:56:05 10° NE 19:58:59 20° ENE 19:58:59 20° ENE
SJ-6B 3.4 19:57:07 11° S 20:01:01 58° W 20:05:02 10° NNW
SL-08 RB Rocket 3.7 20:01:13 32° SSE 20:03:20 69° ENE 20:08:00 10° N
Cosmos 389 Rocket 4.0 20:00:55 10° NNW 20:04:05 34° W 20:07:13 10° SSW
Cosmos 2082 3.9 20:01:18 10° S 20:06:45 47° ESE 20:12:14 10° NE
SL-8 R/B 3.6 20:02:57 10° W 20:07:46 80° S 20:09:16 44° ESE
Cosmos 1959 Rocket 4.4 20:02:11 10° N 20:08:22 86° E 20:13:13 17° S
Cosmos 1850 Rocket 4.3 20:05:09 10° NNW 20:10:12 48° ENE 20:11:24 40° E
Cosmos 1892 Rocket 4.4 20:06:06 10° NNW 20:10:27 51° W 20:14:37 11° S
Cosmos 1626 3.8 20:09:52 10° NNE 20:11:44 21° NE 20:11:44 21° NE
USA 186 3.9 20:12:36 10° SSW 20:15:37 29° W 20:18:40 10° NNW
Cosmos 1766 3.1 20:15:15 64° SE 20:15:39 71° E 20:19:34 10° NNE
ARGOS 3.4 20:16:39 19° S 20:20:36 68° WSW 20:26:01 10° NNW
Cosmos 2227 Rocket 2.1 20:17:17 10° SSW 20:22:57 90° ESE 20:28:41 10° NNE
Lacrosse 5 rocket 2.3 20:19:42 10° SW 20:21:44 30° SSW 20:21:44 30° SSW
Cosmos 2056 Rocket 3.9 20:20:27 10° SSW 20:25:51 67° WNW 20:31:16 10° NNE
Cosmos 2219 3.9 20:20:29 10° SW 20:26:08 57° NW 20:31:49 10° NNE
Cosmos 1420 Rocket 3.9 20:25:36 10° SSW 20:30:52 69° ESE 20:36:11 10° NNE
ADEOS Rocket 3.5 20:23:34 10° NNE 20:30:56 90° WNW 20:38:44 10° SSW
BREEZE M DEB (TANK) 2.3 20:30:45 10° W 20:33:24 85° S 20:33:28 84° SSE
Cosmos 2297 Rocket 2.3 20:27:52 10° SW 20:33:32 75° WNW 20:39:14 10° NNE
USA 234 4.0 20:31:34 19° ENE 20:36:06 47° N 20:42:18 10° WNW
Cosmos 405 Rocket 4.5 20:35:17 10° SW 20:38:36 31° WNW 20:41:58 10° N
MetOp-A 4.3 20:36:53 36° S 20:39:06 70° WSW 20:44:29 10° NNW
ERS-1 Rocket 3.8 20:40:43 36° NE 20:40:43 36° NE 20:44:53 10° N
Cosmos 1437 Rocket 3.7 20:36:53 10° NNW 20:40:29 41° W 20:41:07 38° WSW
Cosmos 1741 Rocket 3.9 20:35:08 10° NNW 20:40:31 78° ENE 20:41:12 66° SE
Meteor 2-12 Rocket 4.4 20:37:41 10° N 20:43:45 62° ENE 20:44:34 56° ESE
SPOT 1/Viking Rocket 4.1 20:46:26 42° NE 20:46:26 42° NE 20:50:56 10° N
CZ-2C R/B 3.5 20:46:00 37° SSW 20:48:03 62° W 20:53:35 10° NNW
Spot 2 Rocket 3.3 20:49:00 75° SSE 20:49:27 90° WSW 20:54:32 10° NNW
DMSP B5D2-2 3.9 20:45:46 10° NNE 20:51:05 79° ESE 20:51:28 74° SSE
Cosmos 1943 3.7 20:46:17 10° NNW 20:51:44 43° NE 20:51:54 43° ENE
Meteor 1-21 Rocket 4.4 20:47:24 10° N 20:53:13 58° ENE 20:53:21 58° ENE
Cosmos 2084 Rocket 3.9 20:48:53 10° SW 20:53:18 62° NW 20:54:17 48° N
Cosmos 1934 Rocket 4.2 20:48:53 10° N 20:54:50 51° ENE 20:54:50 51° ENE
Cosmos 1674 4.3 20:53:56 10° NNW 20:57:13 29° W 20:57:33 29° WSW
Landsat 7 4.5 21:00:49 45° NNE 21:00:49 45° NNE 21:04:28 10° N
Cosmos 2237 Rocket 4.4 20:58:00 10° NW 21:01:59 20° W 21:05:57 10° SW
ISS -0.7 20:59:07 10° WSW 20:59:17 11° WSW 20:59:17 11° WSW
SPOT 5 3.8 21:07:33 39° NNE 21:07:33 39° NNE 21:11:10 10° N
RESURS DK-1 3.4 21:03:42 10° NW 21:06:43 45° NW 21:06:43 45° NW
USA 245 4.2 21:07:50 76° SSE 21:08:21 88° ENE 21:14:02 10° NNW
Cosmos 1452 Rocket 3.9 21:19:01 48° WSW 21:20:13 60° WNW 21:25:27 10° NNE
Nadezhda 3 Rocket 4.0 21:23:39 67° SW 21:24:25 77° W 21:30:40 10° N
H-2A R/B 4.4 21:23:21 10° SW 21:26:39 18° W 21:30:01 10° NW
Cosmos 1603 3.8 21:23:53 10° NNW 21:28:57 71° NW 21:28:57 71° NW
Resurs 01 Rocket 3.7 21:30:38 21° WSW 21:31:18 22° W 21:34:45 10° NW
Terra 3.2 21:33:20 32° N 21:33:20 32° N 21:36:04 10° N
SL-16 R/B 3.7 21:29:07 10° NW 21:33:50 27° WSW 21:34:52 26° WSW
Cosmos 1605 Rocket 4.2 21:30:11 10° N 21:35:46 62° NE 21:35:46 62° NE
Cosmos 1821 Rocket 4.4 21:33:17 10° NNW 21:39:16 54° W 21:39:50 52° WSW
CZ-2C R/B 3.0 21:35:31 10° N 21:40:29 64° NNW 21:40:29 64° NNW
CZ-4C R/B 3.8 21:43:07 10° NW 21:49:17 37° NNE 21:50:38 35° NE
Cosmos 2227 Rocket 4.4 22:03:25 10° W 22:07:49 22° NW 22:12:14 10° N
USA 234 3.6 22:18:54 60° N 22:18:54 60° N 22:25:01 10° WNW
Cosmos 2263 Rocket 4.1 22:33:29 23° NNE 22:33:29 23° NNE 22:35:34 10° NNE
CZ-4C R/B 3.7 23:31:33 10° NW 23:35:47 42° NW 23:35:47 42° NW
Cosmos 2082 Rocket 4.1 23:44:24 10° NNW 23:47:21 26° N 23:47:21 26° N
